Weather in Die

France     44°45′16″N   5°22′07″E
temp.,
°C
wind,
m/s
gust,
m/s
humid.,
%
clouds,
%
prec.,
mm/h
press.,
hPa
HPBL,
m
23 april, fri
fri2323:00+8ene22793 0.0 101918
02:00+6e11850 0.0 102010
05:00+6ene11860 0.0 102011
08:00+8ne11780 0.0 102161
11:00+14w21550 0.0 1020958
14:00+17w334628 0.0 10191791
17:00+17wnw224934 0.1 10191421
20:00+13w117036 0.2 102013
24 april, sat
sat2423:00+10se11816 0.0 102210
02:00+8ese21884 0.0 102312
05:00+7e219032 0.0 102213
08:00+9ese1181100 0.0 102258
11:00+15sw2252100 0.0 1021830
14:00+19wsw334195 0.0 10201836
17:00+18wsw334198 0.0 10191505
20:00+14w11615 0.0 101911
25 april, sun
sun2523:00+9ese1174100 0.0 102012
02:00+8ese1178100 0.0 102011
05:00+8e2177100 0.0 101913
08:00+11ese117140 0.0 101851
11:00+16wsw215174 0.0 1017890
14:00+19wsw2341100 0.0 10161608
17:00+17w2247100 0.0 1015875
20:00+13nne1168100 0.2 101630
26 april, mon
mon2623:00+12se1167100 0.0 101611
02:00+9ese117899 0.0 101611
05:00+8e118358 0.0 101312
08:00+11e1279100 0.2 101267
11:00+17sw1246100 0.0 1010788
14:00+18wsw2442100 0.0 10081140
17:00+16w2252100 0.1 1006876
20:00+12w1180100 0.3 100630
27 april, tue
tue2723:00+10ene0084100 0.0 100610
02:00+9nnw119195 0.1 100611
05:00+9ne0095100 0.0 100513
08:00+10nnw1191100 0.1 100482
11:00+10nnw0195100 0.8 1004115
14:00+13wnw118150 1.2 1003472
17:00+14w237698 2.3 1002790
20:00+10sw129198 3.7 100375